Location: Kawakawa
(35.3830°S, 174.0670°E)
Time: 16:25:22
(UTC+13:00)

Meteor 2-10 Rocket - Pass Details

Date: 24 January 2019
Orbit: 733 x 885 km, 81.2° (Epoch: 19 February)

Event Time Altitude Azimuth Distance (km) Brightness Sun altitude
Rises 21:31:39 0° 344° (NNW) 3,161 6.5 -10.5°
Reaches altitude 10° 21:33:57 10° 340° (NNW) 2,257 5.8 -10.9°
Maximum altitude 21:38:57 61° 259° (W) 872 4.1 -11.7°
Drops below altitude 10° 21:44:12 10° 179° (S) 2,362 6.5 -12.6°
Sets 21:46:40 0° 175° (S) 3,322 7.2 -13.0°
